When you browse on this site, cookies collect data to enhance your experience and personalize the content and advertising you see.
Visit our Privacy Policy to learn more. By continuing to use the site, you agree to this use of cookies and data.
  • In United Kingdom
  • List of Countries
  • For 7 days
  • Water Temperature
  • Weather Map
  • Weather Widgets
  • user-avatar
    Login

    Hourly Weather Abercarn

    Today, 19 November, Tuesday

    Time Temperature Precipitation Wind Pressure Humidity
    00:00 +3°C° 0 mm 1 mps 744 mmHg 92%
    01:00 +4°C° 0 mm 1 mps 744 mmHg 92%
    02:00 +4°C° 0 mm 1 mps 743 mmHg 92%
    03:00 +3°C° 0 mm 2 mps 743 mmHg 92%
    04:00 +3°C° 0 mm 2 mps 743 mmHg 93%
    05:00 +3°C° 0 mm 2 mps 743 mmHg 93%
    06:00 +2°C° 0 mm 2 mps 742 mmHg 94%
    07:00 +3°C° 0 mm 2 mps 742 mmHg 94%
    08:00 +3°C° 0 mm 2 mps 742 mmHg 93%
    09:00 +3°C° 0 mm 2 mps 742 mmHg 93%
    10:00 +4°C° 0 mm 2 mps 742 mmHg 91%
    11:00 +5°C° 0 mm 2 mps 742 mmHg 89%
    12:00 +5°C° 0 mm 3 mps 742 mmHg 87%
    13:00 +7°C° 0 mm 3 mps 741 mmHg 88%
    14:00 +6°C° 0 mm 4 mps 741 mmHg 88%
    15:00 +6°C° 0 mm 4 mps 741 mmHg 89%
    16:00 +6°C° 0 mm 4 mps 741 mmHg 90%
    17:00 +6°C° 0 mm 4 mps 741 mmHg 91%
    18:00 +5°C° 0 mm 4 mps 741 mmHg 93%
    19:00 +5°C° 0 mm 5 mps 740 mmHg 93%
    20:00 +5°C° 0 mm 5 mps 740 mmHg 93%
    21:00 +5°C° 0 mm 5 mps 740 mmHg 93%
    22:00 +5°C° 0.1 mm 5 mps 740 mmHg 93%
    23:00 +5°C° 0.1 mm 5 mps 740 mmHg 93%

    Tomorrow, 20 November, Wednesday

    Time Temperature Precipitation Wind Pressure Humidity
    00:00 +5°C° 0.1 mm 5 mps 740 mmHg 92%
    01:00 +6°C° 0.1 mm 5 mps 740 mmHg 92%
    02:00 +5°C° 0.1 mm 6 mps 739 mmHg 92%
    03:00 +5°C° 0.1 mm 6 mps 739 mmHg 91%
    04:00 +4°C° 0 mm 6 mps 739 mmHg 91%
    05:00 +4°C° 0 mm 6 mps 739 mmHg 91%
    06:00 +4°C° 0 mm 6 mps 739 mmHg 91%
    07:00 +4°C° 0 mm 6 mps 739 mmHg 91%
    08:00 +4°C° 0 mm 6 mps 739 mmHg 91%
    09:00 +4°C° 0 mm 7 mps 738 mmHg 91%
    10:00 +4°C° 0 mm 7 mps 738 mmHg 88%
    11:00 +4°C° 0 mm 8 mps 738 mmHg 85%
    12:00 +4°C° 0 mm 8 mps 738 mmHg 82%
    13:00 +4°C° 0 mm 8 mps 737 mmHg 82%
    14:00 +4°C° 0 mm 8 mps 737 mmHg 81%
    15:00 +2°C° 0 mm 8 mps 736 mmHg 81%
    16:00 +3°C° 0 mm 7 mps 736 mmHg 83%
    17:00 +3°C° 0 mm 7 mps 736 mmHg 84%
    18:00 +2°C° 0 mm 6 mps 736 mmHg 85%
    19:00 +2°C° 0 mm 6 mps 736 mmHg 86%
    20:00 +2°C° 0 mm 6 mps 736 mmHg 87%
    21:00 +1°C° 0 mm 5 mps 735 mmHg 88%
    22:00 +2°C° 0 mm 5 mps 735 mmHg 89%
    23:00 +2°C° 0 mm 5 mps 735 mmHg 89%

    Day after tomorrow, 21 November, Thursday

    Time Temperature Precipitation Wind Pressure Humidity
    00:00 +2°C° 0 mm 5 mps 734 mmHg 90%
    01:00 +2°C° 0 mm 5 mps 734 mmHg 90%
    02:00 +2°C° 0 mm 5 mps 733 mmHg 91%
    03:00 +2°C° 0 mm 5 mps 733 mmHg 91%
    04:00 +2°C° 0 mm 6 mps 733 mmHg 91%
    05:00 +2°C° 0 mm 6 mps 732 mmHg 91%
    06:00 +2°C° 0 mm 6 mps 732 mmHg 91%
    07:00 +3°C° 0 mm 6 mps 732 mmHg 91%
    08:00 +3°C° 0 mm 7 mps 732 mmHg 91%
    09:00 +3°C° 0 mm 7 mps 731 mmHg 91%
    10:00 +4°C° 0.1 mm 7 mps 731 mmHg 91%
    11:00 +4°C° 0.1 mm 7 mps 731 mmHg 90%
    12:00 +5°C° 0.1 mm 7 mps 731 mmHg 90%
    13:00 +5°C° 0.6 mm 6 mps 730 mmHg 91%
    14:00 +5°C° 0.6 mm 6 mps 730 mmHg 93%
    15:00 +5°C° 0.6 mm 6 mps 729 mmHg 94%
    16:00 +6°C° 0.6 mm 5 mps 729 mmHg 94%
    17:00 +6°C° 0.6 mm 4 mps 729 mmHg 94%
    18:00 +7°C° 0.6 mm 3 mps 728 mmHg 95%
    19:00 +5°C° 0.8 mm 3 mps 728 mmHg 95%
    20:00 +5°C° 0.8 mm 3 mps 728 mmHg 94%
    21:00 +5°C° 0.8 mm 3 mps 728 mmHg 94%
    22:00 +5°C° 0.3 mm 3 mps 728 mmHg 94%
    23:00 +5°C° 0.3 mm 2 mps 727 mmHg 94%

    22 November, Friday

    Time Temperature Precipitation Wind Pressure Humidity
    00:00 +5°C° 0.3 mm 2 mps 727 mmHg 94%
    01:00 +4°C° 0 mm 2 mps 727 mmHg 95%
    02:00 +5°C° 0 mm 1 mps 727 mmHg 95%
    03:00 +4°C° 0 mm 1 mps 727 mmHg 95%
    04:00 +4°C° 0 mm 1 mps 727 mmHg 95%
    05:00 +4°C° 0 mm 1 mps 727 mmHg 95%
    06:00 +3°C° 0 mm 2 mps 728 mmHg 95%
    07:00 +4°C° 0.2 mm 2 mps 728 mmHg 95%
    08:00 +4°C° 0.2 mm 3 mps 728 mmHg 95%
    09:00 +4°C° 0.2 mm 3 mps 729 mmHg 95%
    10:00 +5°C° 0.2 mm 4 mps 729 mmHg 93%
    11:00 +6°C° 0.2 mm 4 mps 730 mmHg 90%
    12:00 +6°C° 0.2 mm 4 mps 730 mmHg 88%
    13:00 +6°C° 0.1 mm 4 mps 730 mmHg 88%
    14:00 +7°C° 0.1 mm 3 mps 730 mmHg 88%
    15:00 +7°C° 0.1 mm 2 mps 730 mmHg 88%
    16:00 +6°C° 0 mm 2 mps 730 mmHg 89%
    17:00 +6°C° 0 mm 2 mps 730 mmHg 90%
    18:00 +5°C° 0 mm 2 mps 730 mmHg 91%
    19:00 +4°C° 0.2 mm 3 mps 730 mmHg 92%
    20:00 +4°C° 0.2 mm 3 mps 730 mmHg 93%
    21:00 +4°C° 0.2 mm 4 mps 730 mmHg 94%
    22:00 +4°C° 1.2 mm 4 mps 730 mmHg 94%
    23:00 +4°C° 1.2 mm 4 mps 730 mmHg 95%

    23 November, Saturday

    Time Temperature Precipitation Wind Pressure Humidity
    00:00 +4°C° 1.2 mm 4 mps 729 mmHg 96%
    01:00 +4°C° 0.5 mm 4 mps 729 mmHg 96%
    02:00 +5°C° 0.5 mm 4 mps 729 mmHg 96%
    03:00 +5°C° 0.5 mm 5 mps 729 mmHg 96%
    04:00 +5°C° 1 mm 4 mps 729 mmHg 96%
    05:00 +5°C° 1 mm 4 mps 729 mmHg 96%
    06:00 +5°C° 1 mm 4 mps 730 mmHg 96%
    07:00 +5°C° 0.3 mm 4 mps 730 mmHg 96%
    08:00 +5°C° 0.3 mm 3 mps 731 mmHg 96%
    09:00 +5°C° 0.3 mm 3 mps 731 mmHg 95%
    10:00 +7°C° 0 mm 3 mps 731 mmHg 94%
    11:00 +7°C° 0 mm 3 mps 732 mmHg 92%
    12:00 +8°C° 0 mm 3 mps 732 mmHg 91%
    13:00 +8°C° 0 mm 3 mps 733 mmHg 91%
    14:00 +8°C° 0 mm 3 mps 733 mmHg 91%
    15:00 +8°C° 0 mm 2 mps 733 mmHg 91%
    16:00 +7°C° 0 mm 2 mps 734 mmHg 92%
    17:00 +7°C° 0 mm 2 mps 734 mmHg 93%
    18:00 +7°C° 0 mm 1 mps 735 mmHg 94%
    19:00 +7°C° 0 mm 1 mps 735 mmHg 94%
    20:00 +7°C° 0 mm 1 mps 736 mmHg 93%
    21:00 +6°C° 0 mm 1 mps 736 mmHg 92%
    22:00 +6°C° 0 mm 1 mps 736 mmHg 92%
    23:00 +6°C° 0 mm 1 mps 737 mmHg 92%

    24 November, Sunday

    Time Temperature Precipitation Wind Pressure Humidity
    00:00 +6°C° 0 mm 1 mps 737 mmHg 92%
    01:00 +6°C° 0 mm 1 mps 737 mmHg 93%
    02:00 +6°C° 0 mm 1 mps 737 mmHg 94%
    03:00 +5°C° 0 mm 2 mps 737 mmHg 94%
    04:00 +5°C° 0 mm 2 mps 737 mmHg 95%
    05:00 +5°C° 0 mm 3 mps 737 mmHg 95%
    06:00 +5°C° 0 mm 3 mps 737 mmHg 95%
    07:00 +5°C° 0.3 mm 4 mps 736 mmHg 94%
    08:00 +5°C° 0.3 mm 5 mps 736 mmHg 93%
    09:00 +4°C° 0.3 mm 6 mps 736 mmHg 92%
    10:00 +5°C° 1.5 mm 7 mps 735 mmHg 93%
    11:00 +5°C° 1.5 mm 8 mps 734 mmHg 94%
    12:00 +6°C° 1.5 mm 8 mps 733 mmHg 95%
    13:00 +7°C° 1.7 mm 8 mps 733 mmHg 95%
    14:00 +9°C° 1.7 mm 8 mps 732 mmHg 96%
    15:00 +10°C° 1.7 mm 8 mps 732 mmHg 96%
    16:00 +10°C° 2 mm 8 mps 732 mmHg 96%
    17:00 +11°C° 2 mm 8 mps 731 mmHg 96%
    18:00 +11°C° 2 mm 8 mps 731 mmHg 96%
    19:00 +11°C° 3.1 mm 8 mps 731 mmHg 96%
    20:00 +11°C° 3.1 mm 9 mps 731 mmHg 95%
    21:00 +11°C° 3.1 mm 10 mps 730 mmHg 95%
    22:00 +11°C° 2.4 mm 10 mps 730 mmHg 95%
    23:00 +11°C° 2.4 mm 10 mps 729 mmHg 94%
    Show more